NMG8971 RKTU-RJFF

Flight info

Callsign NMG8971
Flight time 0h 59m
Altitude 33000
Route VASLI Y782 TGU Y781 BESNA Y209 IKE
Aircraft AJ27/M-SDE2E3FGHIRWXY/LB1

Departure

Time 2026-05-07 13:33
Airport Cheongju International Airport/Cheongju Air Base (K-59/G-513) (RKTU)

Arrival

Time 2026-05-07 14:32
Airport Fukuoka Airport (RJFF)
Time Latitude Longitude Altitude Speed Heading
2026-05-07 13:23 36.72126 127.49654 197 ft 0 kts 323°
2026-05-07 13:30 36.72107 127.49671 197 ft 6 kts 324°
2026-05-07 13:31 36.72092 127.49734 197 ft 11 kts 251°
2026-05-07 13:31 36.72109 127.49789 198 ft 0 kts 245°
2026-05-07 13:31 36.72058 127.49698 197 ft 36 kts 227°
2026-05-07 13:31 36.71923 127.49763 197 ft 28 kts 143°
2026-05-07 13:32 36.71800 127.49918 197 ft 17 kts 83°
2026-05-07 13:32 36.71822 127.49990 197 ft 0 kts 53°
2026-05-07 13:32 36.71846 127.50030 197 ft 38 kts 53°
2026-05-07 13:32 36.72258 127.50695 202 ft 147 kts 52°
2026-05-07 13:33 36.72886 127.51899 958 ft 174 kts 53°
2026-05-07 13:33 36.73656 127.52897 2187 ft 167 kts 24°
2026-05-07 13:33 36.74716 127.53031 3351 ft 162 kts 327°
2026-05-07 13:33 36.75347 127.51927 4308 ft 176 kts 276°
2026-05-07 13:34 36.75080 127.50438 5473 ft 189 kts 237°
2026-05-07 13:34 36.72729 127.49836 8119 ft 200 kts 157°
2026-05-07 13:34 36.71530 127.50648 9222 ft 206 kts 155°
2026-05-07 13:35 36.70248 127.51447 10162 ft 214 kts 167°
2026-05-07 13:35 36.68844 127.52209 10986 ft 238 kts 150°
2026-05-07 13:35 36.67622 127.53764 11817 ft 265 kts 133°
2026-05-07 13:35 36.66497 127.55637 12624 ft 284 kts 133°
2026-05-07 13:36 36.65257 127.57558 13390 ft 301 kts 136°
2026-05-07 13:36 36.63826 127.59544 14143 ft 319 kts 139°
2026-05-07 13:36 36.62253 127.61568 14858 ft 338 kts 140°
2026-05-07 13:36 36.60526 127.63696 15542 ft 357 kts 141°
2026-05-07 13:37 36.58701 127.65900 16158 ft 377 kts 142°
2026-05-07 13:37 36.56769 127.68227 16696 ft 396 kts 142°
2026-05-07 13:37 36.54763 127.70632 17158 ft 415 kts 142°
2026-05-07 13:37 36.52637 127.73174 17548 ft 433 kts 142°
2026-05-07 13:38 36.50443 127.75789 17865 ft 451 kts 141°
2026-05-07 13:38 36.48147 127.78523 18332 ft 463 kts 141°
2026-05-07 13:38 36.45815 127.81301 18988 ft 468 kts 142°
2026-05-07 13:38 36.43450 127.84139 19630 ft 473 kts 141°
2026-05-07 13:39 36.41086 127.86997 20224 ft 478 kts 141°
2026-05-07 13:39 36.38711 127.89877 20790 ft 483 kts 141°
2026-05-07 13:39 36.36310 127.92787 21326 ft 488 kts 141°
2026-05-07 13:39 36.33875 127.95735 21844 ft 492 kts 141°
2026-05-07 13:40 36.31418 127.98705 22344 ft 497 kts 142°
2026-05-07 13:40 36.28918 128.01724 22826 ft 501 kts 142°
2026-05-07 13:40 36.26440 128.04712 23337 ft 503 kts 142°
2026-05-07 13:40 36.23932 128.07733 24009 ft 502 kts 142°
2026-05-07 13:41 36.21444 128.10730 24685 ft 501 kts 142°
2026-05-07 13:41 36.18972 128.13704 25311 ft 501 kts 142°
2026-05-07 13:41 36.16475 128.16701 25913 ft 501 kts 142°
2026-05-07 13:41 36.13950 128.19730 26511 ft 501 kts 143°
2026-05-07 13:42 36.11486 128.22682 27095 ft 501 kts 143°
2026-05-07 13:42 36.08978 128.25687 27683 ft 501 kts 143°
2026-05-07 13:42 36.06472 128.28685 28269 ft 500 kts 143°
2026-05-07 13:42 36.03981 128.31662 28837 ft 500 kts 143°
2026-05-07 13:43 36.01509 128.34613 29386 ft 500 kts 143°
2026-05-07 13:43 35.99010 128.37595 29931 ft 500 kts 143°
2026-05-07 13:43 35.96495 128.40591 30469 ft 500 kts 143°
2026-05-07 13:43 35.94010 128.43552 30986 ft 500 kts 144°
2026-05-07 13:44 35.91501 128.46536 31428 ft 500 kts 144°
2026-05-07 13:44 35.88989 128.49506 31575 ft 506 kts 145°
2026-05-07 13:44 35.86274 128.52235 31702 ft 503 kts 153°
2026-05-07 13:44 35.83313 128.54474 31816 ft 498 kts 161°
2026-05-07 13:45 35.80177 128.56174 31922 ft 493 kts 169°
2026-05-07 13:45 35.76921 128.57336 32059 ft 486 kts 176°
2026-05-07 13:45 35.73654 128.57948 32289 ft 477 kts 184°
2026-05-07 13:45 35.70393 128.58041 32689 ft 463 kts 191°
2026-05-07 13:46 35.67207 128.57806 32874 ft 456 kts 193°
2026-05-07 13:46 35.60938 128.57210 32887 ft 454 kts 193°
2026-05-07 13:47 35.54618 128.56924 32900 ft 462 kts 187°
2026-05-07 13:47 35.48123 128.57802 32909 ft 475 kts 179°
2026-05-07 13:48 35.41703 128.59967 32910 ft 488 kts 169°
2026-05-07 13:48 35.35411 128.63382 32904 ft 497 kts 163°
2026-05-07 13:49 35.29242 128.67108 32893 ft 496 kts 163°
2026-05-07 13:49 35.22998 128.70860 32891 ft 501 kts 163°
2026-05-07 13:50 35.16652 128.74622 32788 ft 501 kts 163°
2026-05-07 13:50 35.13518 128.76469 32536 ft 500 kts 163°
2026-05-07 13:50 35.10404 128.78305 32287 ft 500 kts 163°
2026-05-07 13:50 35.07273 128.80150 32037 ft 500 kts 163°
2026-05-07 13:51 35.04120 128.82010 31785 ft 500 kts 163°
2026-05-07 13:51 35.00985 128.83966 31532 ft 504 kts 160°
2026-05-07 13:51 34.97961 128.86101 31282 ft 506 kts 156°
2026-05-07 13:51 34.94940 128.88370 31031 ft 504 kts 155°
2026-05-07 13:52 34.91956 128.90628 30780 ft 503 kts 155°
2026-05-07 13:52 34.89305 128.92633 30558 ft 502 kts 154°
2026-05-07 13:52 34.87837 128.93739 30434 ft 502 kts 154°
2026-05-07 13:52 34.84866 128.95975 30183 ft 502 kts 154°
2026-05-07 13:53 34.81893 128.98212 29932 ft 502 kts 154°
2026-05-07 13:53 34.78882 129.00476 29678 ft 504 kts 153°
2026-05-07 13:53 34.72736 129.05090 29166 ft 505 kts 153°
2026-05-07 13:53 34.69730 129.07347 28915 ft 506 kts 153°
2026-05-07 13:54 34.66708 129.09615 28662 ft 507 kts 153°
2026-05-07 13:54 34.63717 129.11855 28413 ft 508 kts 153°
2026-05-07 13:54 34.60715 129.14099 28163 ft 508 kts 153°
2026-05-07 13:54 34.57695 129.16354 27912 ft 508 kts 153°
2026-05-07 13:55 34.54681 129.18602 27661 ft 509 kts 153°
2026-05-07 13:55 34.51672 129.20847 27411 ft 509 kts 153°
2026-05-07 13:55 34.48649 129.23099 27160 ft 509 kts 153°
2026-05-07 13:55 34.45632 129.25345 26942 ft 509 kts 153°
2026-05-07 13:56 34.42607 129.27597 26902 ft 510 kts 153°
2026-05-07 13:56 34.39608 129.29828 26895 ft 506 kts 153°
2026-05-07 13:56 34.36674 129.32018 26872 ft 482 kts 153°
2026-05-07 13:56 34.33881 129.34103 26430 ft 465 kts 153°
2026-05-07 13:57 34.31186 129.36108 25802 ft 448 kts 153°
2026-05-07 13:57 34.28577 129.38045 25174 ft 432 kts 153°
2026-05-07 13:57 34.26062 129.39908 24548 ft 419 kts 153°
2026-05-07 13:57 34.23598 129.41730 23917 ft 407 kts 153°
2026-05-07 13:58 34.21207 129.43498 23233 ft 398 kts 153°
2026-05-07 13:58 34.18877 129.45218 22540 ft 390 kts 153°
2026-05-07 13:58 34.16565 129.46925 21858 ft 383 kts 153°
2026-05-07 13:58 34.14326 129.48578 21204 ft 375 kts 153°
2026-05-07 13:59 34.12120 129.50206 20566 ft 368 kts 153°
2026-05-07 13:59 34.11075 129.50977 20265 ft 365 kts 153°
2026-05-07 13:59 34.09973 129.51788 19942 ft 362 kts 153°
2026-05-07 13:59 34.07838 129.53363 19273 ft 357 kts 153°
2026-05-07 14:00 34.05765 129.55055 18589 ft 355 kts 148°
2026-05-07 14:00 34.03799 129.56824 17913 ft 352 kts 147°
2026-05-07 14:00 34.01864 129.58626 17231 ft 350 kts 143°
2026-05-07 14:00 34.00281 129.60983 16518 ft 355 kts 120°
2026-05-07 14:01 33.99825 129.62273 16197 ft 357 kts 109°
2026-05-07 14:01 33.99522 129.64062 15778 ft 357 kts 95°
2026-05-07 14:01 33.99559 129.65836 15391 ft 356 kts 81°
2026-05-07 14:01 34.00353 129.68593 15006 ft 348 kts 59°
2026-05-07 14:02 34.01807 129.70903 14914 ft 349 kts 39°
2026-05-07 14:02 34.03870 129.72418 14913 ft 343 kts 15°
2026-05-07 14:02 34.06165 129.73074 14922 ft 339 kts
2026-05-07 14:02 34.08481 129.73477 14580 ft 338 kts
2026-05-07 14:03 34.10784 129.73828 14031 ft 333 kts
2026-05-07 14:03 34.13071 129.74164 13480 ft 330 kts
2026-05-07 14:03 34.15347 129.74493 13087 ft 328 kts
2026-05-07 14:03 34.17602 129.74817 12994 ft 328 kts
2026-05-07 14:04 34.19864 129.75139 12987 ft 328 kts
2026-05-07 14:04 34.22125 129.75464 12984 ft 328 kts
2026-05-07 14:04 34.24376 129.75713 12975 ft 325 kts 354°
2026-05-07 14:04 34.26540 129.75146 12977 ft 314 kts 330°
2026-05-07 14:05 34.28275 129.73636 12981 ft 304 kts 308°
2026-05-07 14:05 34.29312 129.71475 12981 ft 297 kts 284°
2026-05-07 14:05 34.29542 129.69032 12987 ft 294 kts 267°
2026-05-07 14:05 34.29363 129.66569 12978 ft 294 kts 259°
2026-05-07 14:06 34.28711 129.64227 12977 ft 294 kts 247°
2026-05-07 14:06 34.27828 129.62004 12972 ft 294 kts 242°
2026-05-07 14:06 34.26524 129.60086 12963 ft 298 kts 221°
2026-05-07 14:06 34.24672 129.58934 12971 ft 305 kts 202°
2026-05-07 14:07 34.22624 129.58275 12971 ft 310 kts 197°
2026-05-07 14:07 34.20501 129.57701 12968 ft 313 kts 196°
2026-05-07 14:07 34.18385 129.57150 12967 ft 314 kts 196°
2026-05-07 14:07 34.16227 129.56592 12966 ft 314 kts 196°
2026-05-07 14:08 34.14115 129.56045 12966 ft 314 kts 196°
2026-05-07 14:08 34.11972 129.55490 12966 ft 314 kts 196°
2026-05-07 14:08 34.09842 129.54936 12966 ft 314 kts 196°
2026-05-07 14:08 34.07708 129.54382 12966 ft 314 kts 196°
2026-05-07 14:09 34.05551 129.53938 12955 ft 318 kts 186°
2026-05-07 14:09 34.03312 129.54201 12964 ft 324 kts 175°
2026-05-07 14:09 34.01106 129.54729 12967 ft 324 kts 173°
2026-05-07 14:09 33.98885 129.55309 12969 ft 325 kts 172°
2026-05-07 14:10 33.96699 129.55888 12972 ft 325 kts 172°
2026-05-07 14:10 33.94487 129.56476 12975 ft 325 kts 172°
2026-05-07 14:10 33.92288 129.57060 12978 ft 325 kts 172°
2026-05-07 14:10 33.90090 129.57643 12981 ft 325 kts 172°
2026-05-07 14:11 33.87873 129.58231 12984 ft 325 kts 172°
2026-05-07 14:11 33.85675 129.58810 12986 ft 325 kts 172°
2026-05-07 14:11 33.83463 129.59392 12602 ft 326 kts 172°
2026-05-07 14:11 33.81226 129.59978 12020 ft 326 kts 172°
2026-05-07 14:12 33.79030 129.60545 11448 ft 326 kts 172°
2026-05-07 14:12 33.76805 129.61113 10867 ft 324 kts 172°
2026-05-07 14:12 33.74628 129.61659 10297 ft 323 kts 172°
2026-05-07 14:12 33.72414 129.62204 9715 ft 322 kts 172°
2026-05-07 14:13 33.70253 129.62727 9142 ft 320 kts 172°
2026-05-07 14:13 33.68083 129.63242 8569 ft 318 kts 172°
2026-05-07 14:13 33.65908 129.63748 7987 ft 317 kts 172°
2026-05-07 14:13 33.63752 129.64243 7414 ft 316 kts 172°
2026-05-07 14:14 33.61606 129.64722 6837 ft 314 kts 172°
2026-05-07 14:14 33.59448 129.65193 6286 ft 311 kts 172°
2026-05-07 14:14 33.57390 129.65636 6026 ft 299 kts 173°
2026-05-07 14:14 33.55385 129.66075 6002 ft 280 kts 173°
2026-05-07 14:15 33.53532 129.66490 5999 ft 272 kts 172°
2026-05-07 14:15 33.51673 129.66907 6001 ft 270 kts 172°
2026-05-07 14:15 33.49833 129.67317 6001 ft 270 kts 173°
2026-05-07 14:15 33.47976 129.67734 6006 ft 270 kts 173°
2026-05-07 14:16 33.46139 129.68143 6009 ft 270 kts 173°
2026-05-07 14:16 33.44304 129.68552 6012 ft 270 kts 173°
2026-05-07 14:16 33.42468 129.68974 6013 ft 271 kts 169°
2026-05-07 14:16 33.40764 129.69949 6004 ft 278 kts 143°
2026-05-07 14:17 33.39581 129.71794 6009 ft 284 kts 115°
2026-05-07 14:17 33.39206 129.74116 6013 ft 288 kts 88°
2026-05-07 14:17 33.39727 129.76422 6015 ft 289 kts 60°
2026-05-07 14:17 33.40944 129.78320 6024 ft 288 kts 46°
2026-05-07 14:18 33.42339 129.80011 6023 ft 288 kts 43°
2026-05-07 14:18 33.43782 129.81683 6022 ft 288 kts 43°
2026-05-07 14:18 33.45219 129.83334 6021 ft 287 kts 42°
2026-05-07 14:18 33.46662 129.84990 6021 ft 287 kts 43°
2026-05-07 14:19 33.48106 129.86642 6020 ft 288 kts 43°
2026-05-07 14:19 33.49560 129.88295 6019 ft 288 kts 42°
2026-05-07 14:19 33.51009 129.89943 6017 ft 288 kts 43°
2026-05-07 14:19 33.52452 129.91586 6015 ft 288 kts 42°
2026-05-07 14:20 33.53915 129.93251 6013 ft 288 kts 43°
2026-05-07 14:20 33.55378 129.94884 6010 ft 289 kts 43°
2026-05-07 14:20 33.56838 129.96532 6008 ft 287 kts 42°
2026-05-07 14:20 33.58307 129.98207 6009 ft 290 kts 42°
2026-05-07 14:21 33.59781 129.99887 6006 ft 289 kts 42°
2026-05-07 14:21 33.61231 130.01533 6001 ft 289 kts 43°
2026-05-07 14:21 33.62685 130.03185 5958 ft 288 kts 42°
2026-05-07 14:21 33.64140 130.04840 5276 ft 297 kts 43°
2026-05-07 14:22 33.65680 130.06567 4492 ft 306 kts 42°
2026-05-07 14:22 33.67236 130.08330 3733 ft 312 kts 42°
2026-05-07 14:22 33.68800 130.10100 3228 ft 308 kts 43°
2026-05-07 14:22 33.70350 130.11826 3010 ft 295 kts 43°
2026-05-07 14:23 33.71796 130.13419 3001 ft 276 kts 42°
2026-05-07 14:23 33.73164 130.15013 2992 ft 272 kts 52°
2026-05-07 14:23 33.73967 130.17046 2988 ft 270 kts 80°
2026-05-07 14:23 33.73876 130.19263 2989 ft 267 kts 109°
2026-05-07 14:24 33.73098 130.21257 2998 ft 265 kts 120°
2026-05-07 14:24 33.72142 130.23157 2998 ft 263 kts 122°
2026-05-07 14:24 33.71167 130.25009 2997 ft 263 kts 123°
2026-05-07 14:24 33.70183 130.26869 2997 ft 263 kts 123°
2026-05-07 14:25 33.69210 130.28709 2994 ft 256 kts 122°
2026-05-07 14:25 33.68288 130.30441 2992 ft 239 kts 123°
2026-05-07 14:25 33.67424 130.32066 2990 ft 223 kts 122°
2026-05-07 14:25 33.66607 130.33575 2988 ft 208 kts 124°
2026-05-07 14:26 33.65764 130.34917 2981 ft 193 kts 136°
2026-05-07 14:26 33.64690 130.35809 2986 ft 185 kts 152°
2026-05-07 14:26 33.63538 130.36467 2992 ft 185 kts 155°
2026-05-07 14:26 33.62350 130.37085 2989 ft 180 kts 155°
2026-05-07 14:27 33.61256 130.37643 3034 ft 158 kts 156°
2026-05-07 14:27 33.60336 130.38106 2949 ft 134 kts 155°
2026-05-07 14:27 33.59516 130.38525 2652 ft 125 kts 155°
2026-05-07 14:27 33.58726 130.38933 2363 ft 123 kts 155°
2026-05-07 14:28 33.57923 130.39343 2089 ft 128 kts 154°
2026-05-07 14:28 33.57116 130.39784 1817 ft 128 kts 153°
2026-05-07 14:28 33.56307 130.40236 1562 ft 127 kts 153°
2026-05-07 14:28 33.55579 130.40814 1514 ft 125 kts 134°
2026-05-07 14:29 33.54988 130.41577 1508 ft 125 kts 127°
2026-05-07 14:29 33.54414 130.42374 1504 ft 126 kts 130°
2026-05-07 14:29 33.53819 130.43153 1502 ft 126 kts 130°
2026-05-07 14:29 33.53228 130.43921 1502 ft 126 kts 130°
2026-05-07 14:30 33.52832 130.44823 1476 ft 123 kts 88°
2026-05-07 14:30 33.53215 130.45683 1490 ft 122 kts 28°
2026-05-07 14:30 33.54044 130.45813 1515 ft 123 kts 356°
2026-05-07 14:30 33.54879 130.45998 1235 ft 128 kts 26°
2026-05-07 14:31 33.55652 130.46553 796 ft 129 kts 29°
2026-05-07 14:31 33.56481 130.46526 509 ft 133 kts 328°
2026-05-07 14:31 33.57276 130.45961 127 ft 129 kts 332°
2026-05-07 14:31 33.57984 130.45482 41 ft 89 kts 333°
2026-05-07 14:32 33.58431 130.45186 41 ft 68 kts 330°
2026-05-07 14:32 33.58798 130.44894 41 ft 53 kts 316°
2026-05-07 14:32 33.58889 130.44759 41 ft 0 kts 299°
2026-05-07 14:32 33.58895 130.44743 41 ft 6 kts 298°
2026-05-07 14:33 33.58897 130.44740 41 ft 0 kts 298°
2026-05-07 14:33 33.58897 130.44739 41 ft 0 kts 298°
2026-05-07 14:33 33.58899 130.44734 41 ft 7 kts 298°
2026-05-07 14:33 33.58922 130.44504 41 ft 22 kts 244°
2026-05-07 14:34 33.58879 130.44457 41 ft 32 kts 190°
2026-05-07 14:34 33.58716 130.44513 41 ft 9 kts 243°
2026-05-07 14:34 33.58711 130.44484 41 ft 7 kts 243°
2026-05-07 14:34 33.58689 130.44441 41 ft 0 kts 237°